Location: *
(38.0144°S, 57.7486°E)
Time: 19:41:42
(UTC+00:00)

Daily predictions for brighter satellites

Satellite Brightness Start Highest point End
(mag) Time Altitude Azimuth Time Altitude Azimuth Time Altitude Azimuth
NOSS 3-1 (A) 3.4 14:02:38 10° SW 14:08:47 80° WNW 14:13:48 10° NNE
Meteor 1-31 Rocket 3.8 14:07:00 10° SE 14:10:05 24° E 14:13:08 10° NNE
USA 229 DEB 3.9 14:08:33 10° SSW 14:14:47 43° SE 14:20:31 10° ENE
USA 229 3.9 14:08:42 10° SSW 14:14:55 42° SE 14:20:39 10° ENE
Cosmos 614 Rocket 4.3 14:09:52 10° NNW 14:15:04 73° WSW 14:20:19 10° SSE
ATLAS 5 CENTAUR R/B 3.8 14:12:01 10° SW 14:16:42 32° WNW 14:20:33 10° N
Cosmos 1400 Rocket 2.9 14:13:58 10° N 14:17:58 86° W 14:22:00 10° S
SeaSat 1 2.8 14:15:18 10° SE 14:20:02 43° ENE 14:24:42 10° N
Okean 2 3.4 14:16:14 10° N 14:20:10 57° E 14:24:10 10° SSE
CZ-2C R/B 3.0 14:17:13 10° SSE 14:20:39 41° E 14:24:04 10° N
Meteor 1-16 Rocket 4.4 14:14:50 10° S 14:20:48 63° E 14:26:39 10° NNE
Cosmos 44 4.2 14:20:55 10° S 14:25:03 29° SE 14:29:22 10° ENE
BREEZE-M DEB (TANK) 2.7 14:25:18 10° NNW 14:27:16 24° NE 14:28:51 14° E
ISS -2.1 14:29:10 10° N 14:31:43 20° NE 14:33:13 15° E
Cosmos 1782 Rocket 4.4 14:30:45 10° SSE 14:34:35 28° ESE 14:38:21 10° NE
Cosmos 482 Debris 2.2 14:33:02 10° NW 14:34:48 75° NE 14:35:48 23° SE
Cosmos 1346 Rocket 3.0 14:32:04 10° S 14:35:52 44° ESE 14:39:37 10° NNE
SEDSat Delta rocket 4.2 14:34:01 10° NW 14:37:26 26° NNE 14:40:12 14° ENE
SMAP 3.2 14:33:45 10° S 14:38:30 79° WSW 14:43:10 10° NNW
Cosmos 1908 Rocket 3.5 14:37:07 10° S 14:41:32 70° E 14:45:53 10° NNE
Cosmos 1300 4.5 14:38:23 10° SSW 14:41:45 34° W 14:45:04 10° NNW
Cosmos 1269 Rocket 4.3 14:36:34 10° NNW 14:41:52 76° WSW 14:47:14 10° SSE
AQUARIUS 4.1 14:39:15 10° SSE 14:43:48 88° ENE 14:48:16 10° NNW
Cosmos 2285 Rocket 4.0 14:41:53 10° N 14:48:17 75° ENE 14:54:47 10° SSE
ATLAS 3B R/B 4.0 14:46:39 10° SW 14:52:24 39° WNW 14:58:14 10° N
Delta 2 Rocket 3.4 14:53:08 10° WNW 14:56:48 55° N 14:58:36 29° ENE
Cosmos 1992 Rocket 4.3 14:53:09 10° SSW 14:58:23 70° WNW 15:03:34 10° N
IGS 5A 3.8 14:57:29 10° SSE 15:01:26 41° E 15:05:20 10° N
Cosmos 1300 Rocket 3.8 14:57:42 10° S 15:01:54 45° E 15:06:03 10° NNE
CZ-4B R/B 4.1 14:58:49 10° SSE 15:03:39 35° E 15:08:23 10° NNE
Cosmos 2242 Rocket 3.6 15:02:13 10° N 15:06:40 59° E 15:11:13 10° SSE
Cosmos 1140 Rocket 3.4 15:01:55 10° N 15:07:04 71° ENE 15:12:15 10° SSE
Cosmos 2098 Rocket 4.3 15:03:02 10° S 15:09:31 49° E 15:15:54 10° NNE
Cosmos 1455 2.0 15:06:50 10° S 15:10:27 85° W 15:14:01 10° N
Cosmos 1174 2.9 15:07:22 10° NNW 15:10:31 69° ENE 15:10:44 65° E
Cosmos 1953 2.9 15:07:19 10° SSW 15:11:12 56° W 15:15:00 10° N
Cosmos 1656 3.9 15:08:03 10° SSW 15:13:39 51° ESE 15:16:30 27° NE
Lacrosse 5 3.5 15:11:03 10° SSW 15:14:40 19° SSE 15:15:18 19° SE
Cosmos 407 Rocket 3.4 15:12:53 10° N 15:17:57 59° ENE 15:23:01 10° SSE
BREEZE-M DEB (TANK) 3.9 15:29:04 10° SW 15:29:38 15° SSW 15:29:38 15° SSW
Cosmos 1833 Rocket 2.5 15:27:55 10° NNW 15:33:32 72° ENE 15:37:45 19° SSE
USA 215 3.2 15:40:25 44° ENE 15:42:40 74° SE 15:49:15 10° SW
NOAA 6 4.3 15:38:16 10° S 15:43:30 68° WSW 15:48:38 10° NNW
ASTRO E2 4.4 15:42:45 10° WNW 15:44:47 23° NW 15:44:47 23° NW
Cosmos 1315 Rocket 4.2 15:43:03 10° NNW 15:46:46 39° WSW 15:50:35 10° S
Cosmos 1066 4.5 15:41:58 10° N 15:47:26 76° E 15:53:00 10° SSE
Cosmos 2360 4.3 15:45:07 10° SSW 15:50:28 58° SE 15:50:28 58° SE
ADEOS Rocket 3.1 15:47:26 10° SSE 15:54:34 86° ENE 16:00:52 10° NNW
Cosmos 2251 Rocket 3.9 15:51:34 10° NNW 15:56:53 64° WSW 16:02:17 10° SSE
Meteor 2-5 Rocket 3.8 15:51:33 10° N 15:57:31 86° W 16:03:29 10° S
Cosmos 1980 Rocket 4.1 15:55:01 10° S 15:56:40 16° SSE 15:56:40 16° SSE
Cosmos 2184 Rocket 4.4 15:55:23 10° NNW 16:01:40 63° W 16:08:05 10° S
Cosmos 2154 Rocket 4.1 15:57:08 10° NNW 16:03:22 76° W 16:09:45 10° S
Cosmos 1610 Rocket 4.4 16:00:42 10° N 16:07:06 89° W 16:13:35 10° S
ISS -1.0 16:05:00 10° WNW 16:06:09 19° W 16:06:09 19° W
Cosmos 1697 Rocket 3.5 16:05:28 10° SSW 16:09:09 39° S 16:09:09 39° S
Meteor 1-24 Rocket 4.3 16:12:13 10° NNW 16:18:01 58° W 16:23:42 10° S
Lacrosse 5 4.3 16:53:11 10° SW 16:54:30 18° SW 16:54:30 18° SW
CENTAUR R/B 4.4 22:40:11 32° ESE 22:40:11 32° ESE 22:43:54 10° SE
Cosmos 1844 Rocket 4.3 23:47:26 26° SSE 23:47:26 26° SSE 23:49:48 10° SSE
NOSS 3-2 (A) 4.1 23:46:12 82° NW 23:46:40 88° WSW 23:54:50 10° SSE
